Theta_e
328 330 331 332 329 328 330 329 331 328 340 341 346 350 349 343 339 337 337 339 340 340 340 343 348 349 352 353 356 353 355 355 356 356 356 356 356 356 356 354 353 354 354 351
335 327 332 328 326 337 338 339 330 332 340 339 339 338 338 337 336 335 334 335 336 338 337 338 344 343 342 339 341 344 346 343 345 353 355 355 356 356 357 356 356 355 355 356
333 326 331 331 329 338 337 337 339 337 340 340 341 340 337 336 335 333 332 333 334 335 335 336 339 334 336 334 330 330 331 331 333 334 348 357 358 357 356 356 356 356 356 354
328 325 337 329 332 334 335 335 336 342 339 339 337 332 331 331 331 331 329 328 330 332 334 334 334 334 333 332 331 330 332 333 332 330 331 342 356 355 357 358 357 357 356 355
324 325 324 330 332 334 335 334 329 334 335 337 334 328 326 325 324 325 326 328 329 332 332 334 334 332 331 331 330 330 330 330 331 331 330 329 336 347 351 354 358 357 358 357
319 324 327 325 331 331 329 333 326 330 329 328 330 329 327 324 323 321 322 323 324 324 325 327 330 330 329 333 332 332 331 330 330 330 331 331 331 340 349 351 356 359 359 357
318 318 326 328 329 327 333 328 325 323 323 324 326 325 323 321 322 322 322 323 323 323 323 325 325 326 326 326 326 330 332 330 329 331 332 330 332 339 348 352 356 354 353 350
322 328 332 323 326 331 323 323 323 322 321 321 322 322 322 321 321 321 322 322 323 323 322 322 323 325 325 326 324 325 331 332 330 329 333 331 330 337 346 348 347 345 342 338
325 326 321 319 321 320 319 320 321 320 320 319 320 321 319 319 318 319 319 320 320 321 322 322 321 321 322 321 325 328 326 325 329 334 335 333 333 333 342 343 339 339 336 333
322 323 321 319 318 318 318 318 318 318 319 319 320 318 318 317 316 317 319 319 320 321 321 320 321 321 321 321 320 324 327 326 326 327 333 333 335 333 338 340 338 337 335 334
321 322 320 319 318 318 319 319 319 319 318 318 317 316 316 316 316 317 317 318 319 319 320 320 321 322 322 322 322 324 324 327 328 328 329 332 335 334 332 337 337 335 337 334
322 318 318 318 318 318 317 317 317 317 317 317 318 316 316 315 316 317 316 317 318 318 319 320 321 321 320 322 322 323 323 325 325 327 328 332 332 333 333 332 337 335 336 334
318 316 315 316 316 317 317 317 317 316 315 315 315 315 315 315 315 315 315 316 316 317 318 319 319 320 320 322 322 323 323 325 327 327 329 330 331 332 327 330 333 331 330 330
316 315 318 317 316 316 316 316 316 315 314 314 315 315 314 314 314 314 314 315 315 316 317 318 318 319 320 321 323 323 323 326 328 329 330 331 333 332 332 327 325 327 326 328
316 315 314 314 313 315 316 314 313 312 312 312 313 313 313 314 314 314 315 316 317 316 316 317 317 319 320 321 322 322 325 324 323 327 329 331 331 330 332 329 325 325 325 324
315 316 315 316 317 316 315 313 312 311 311 312 313 313 314 314 315 316 317 318 318 318 318 318 318 318 319 320 320 322 323 323 322 325 328 330 329 329 330 328 326 322 324 324
315 315 315 317 316 315 314 311 311 311 312 313 313 314 315 316 316 316 317 317 317 317 318 319 318 318 318 318 320 321 321 322 325 326 326 327 328 329 329 328 325 322 323 323
312 313 314 314 314 313 312 313 313 314 313 314 314 315 315 316 316 316 316 316 316 317 318 318 319 320 320 319 319 320 322 322 323 326 326 328 329 327 328 327 325 322 320 318
315 315 315 315 315 314 313 313 315 315 315 315 315 316 316 316 316 316 316 316 316 316 315 317 320 321 321 320 320 320 320 321 324 325 325 326 327 326 326 325 324 322 319 317
315 316 316 316 316 316 315 316 315 315 315 315 316 315 314 314 314 313 313 314 315 314 314 317 319 321 321 320 321 321 322 323 323 324 323 323 324 325 325 324 322 320 318 316
316 316 316 316 315 315 315 315 315 315 314 315 314 314 314 312 312 314 314 314 314 315 317 320 321 321 321 321 322 323 323 323 322 322 323 323 326 324 322 320 318 316 315 315
315 315 315 315 314 313 315 316 315 314 313 312 312 312 311 311 311 311 313 313 312 315 320 320 322 321 322 322 321 320 319 318 318 318 318 319 320 318 316 316 314 313 313 314
315 315 315 314 314 314 316 316 314 313 312 312 312 312 310 310 311 310 311 311 311 313 318 319 320 319 319 319 318 316 316 316 315 314 314 314 314 314 313 313 312 312 313 312
315 315 314 315 315 314 314 316 315 312 312 312 311 311 311 310 310 310 310 310 310 310 312 314 315 316 317 315 315 314 314 313 313 313 312 312 312 311 311 311 311 311 311 311
316 315 314 313 312 313 315 316 315 315 314 313 312 312 311 311 311 311 311 311 311 311 311 311 311 312 312 313 313 313 313 312 313 313 312 312 311 311 312 312 312 311 311 311
313 313 312 312 313 313 316 316 314 315 315 314 313 313 313 313 313 311 310 310 311 311 311 311 311 311 311 311 312 311 312 311 311 311 311 311 311 312 312 311 311 310 310 310
313 315 314 312 312 313 314 316 315 315 315 315 314 315 315 315 315 313 310 310 310 310 311 311 311 312 312 312 311 311 311 310 310 310 310 310 310 310 311 311 311 310 310 309
Wind_Speed
3 1 4 3 5 3 3 3 3 5 7 4 4 5 3 4 8 13 11 11 10 9 7 14 18 22 24 28 37 23 6 7 13 19 22 24 27 28 27 25 26 28 28 25
2 5 6 7 7 6 5 4 1 5 5 1 9 9 8 8 8 10 9 9 8 8 11 15 19 22 27 29 30 28 28 28 24 15 12 16 22 26 28 28 29 26 26 25
3 3 4 3 3 6 4 9 3 3 2 3 14 11 6 6 7 7 7 7 7 6 8 15 20 23 25 24 26 28 26 25 27 26 22 19 16 19 25 30 29 30 27 25
3 2 3 4 9 13 15 8 11 11 10 8 11 9 9 7 7 7 7 6 5 7 10 13 15 16 17 19 22 24 24 23 25 26 26 24 23 23 20 23 27 29 30 31
4 3 3 0 5 2 4 4 7 5 6 5 5 7 7 8 6 5 4 5 8 8 9 12 14 15 18 20 20 20 19 21 23 25 27 28 27 27 27 21 21 28 31 31
3 5 8 3 1 6 5 2 5 4 6 6 2 3 4 10 8 9 13 14 16 16 17 19 18 20 23 20 17 14 14 16 18 21 24 25 27 28 27 23 20 23 23 17
3 3 3 3 6 3 4 5 2 3 6 7 5 3 4 6 7 12 15 21 25 26 25 25 24 22 18 13 15 16 15 15 16 16 18 21 24 22 23 20 12 4 6 3
3 5 3 6 3 3 5 3 4 3 4 6 4 3 3 5 7 11 15 22 24 23 24 22 19 18 19 22 23 20 16 18 19 16 14 16 20 19 15 9 7 11 14 14
2 4 4 5 7 5 4 5 3 4 3 5 4 2 5 6 8 10 15 17 21 21 23 24 23 21 20 22 22 20 19 19 20 20 17 16 13 15 13 6 7 15 20 21
4 2 3 6 5 5 5 5 4 4 3 2 3 5 6 6 6 9 18 21 26 26 21 21 27 26 25 25 26 25 24 23 22 21 22 21 15 11 13 13 15 13 17 20
4 3 4 4 4 4 3 2 2 3 4 5 6 8 6 6 7 13 16 19 23 23 25 28 31 29 30 29 27 27 28 25 25 24 23 26 21 16 14 17 19 20 24 26
4 6 5 4 3 1 2 2 2 2 3 5 4 6 7 6 16 19 21 24 23 25 26 30 32 32 34 31 30 29 30 29 27 25 22 24 25 20 18 19 21 23 30 27
5 5 5 6 5 3 4 4 1 3 3 4 9 10 14 14 18 24 25 26 27 29 30 28 27 29 33 32 30 28 29 29 28 26 25 23 26 21 15 20 20 20 23 26
7 7 4 3 4 3 1 4 1 4 6 9 14 19 20 18 21 21 22 26 30 31 32 32 31 31 28 31 29 29 28 26 27 29 27 25 25 24 20 17 14 19 18 18
6 4 7 5 6 4 2 1 4 5 6 8 15 15 18 20 22 24 27 28 28 29 31 32 32 33 29 31 34 32 26 24 26 28 27 26 26 25 19 18 17 19 14 9
7 5 4 4 4 1 3 5 4 7 7 13 16 20 24 26 29 30 31 30 24 22 27 28 30 34 34 33 34 35 30 30 30 29 27 28 26 18 14 16 18 17 18 14
5 3 3 1 3 4 6 5 5 7 13 15 20 23 25 28 28 29 30 29 30 29 29 32 35 35 34 35 36 32 31 32 29 29 28 29 25 18 15 16 18 20 20 17
5 4 5 4 4 6 7 9 12 15 15 21 24 24 26 27 23 32 34 33 31 29 30 32 32 34 35 33 33 32 28 28 29 26 24 25 26 19 17 17 20 19 17 17
8 6 4 6 8 9 10 12 16 21 23 23 23 24 30 34 35 34 35 27 25 23 33 28 28 31 28 30 29 30 30 27 20 21 23 26 21 17 18 19 19 19 18 21
4 5 5 4 6 8 12 19 20 20 23 23 25 28 29 32 32 31 27 23 25 27 33 34 32 28 26 25 23 22 22 17 16 17 20 18 17 17 20 22 19 19 20 22
4 2 4 5 10 14 15 15 16 18 23 24 27 27 28 29 28 25 18 9 27 28 31 32 28 21 16 15 11 12 13 13 15 17 18 17 15 16 19 18 18 19 19 19
3 3 4 7 9 13 14 12 15 16 19 23 25 25 24 22 24 24 22 16 27 28 22 13 6 4 5 6 4 4 3 1 3 5 6 5 10 16 18 19 20 21 22 22
6 4 5 6 10 11 9 9 9 9 13 17 19 21 21 21 19 17 12 30 28 22 12 8 6 8 7 7 7 6 6 7 4 5 7 9 11 14 17 20 21 26 27 27
4 5 7 9 8 6 5 7 5 6 10 15 16 17 19 21 22 24 23 24 26 25 23 17 14 11 9 8 9 9 10 10 11 12 15 17 19 22 21 22 21 23 26 27
4 7 6 4 5 5 7 7 9 8 14 19 19 18 18 20 17 24 22 23 23 23 22 19 17 15 13 14 14 13 11 11 12 13 15 17 19 22 24 26 23 20 21 21
5 7 6 6 10 8 8 8 10 10 15 19 22 22 24 26 21 18 18 19 18 19 21 23 21 18 16 15 15 16 16 16 16 17 18 20 21 22 21 22 22 22 20 21
4 6 8 10 11 9 10 10 8 11 15 18 19 22 24 23 20 8 8 14 16 17 15 16 17 18 17 15 11 8 8 10 11 13 14 14 14 15 18 19 19 20 20 21
Wind_Direction
57 38 133 74 68 81 113 152 173 239 156 171 94 70 52 77 77 75 72 63 57 54 39 46 57 56 52 49 47 51 34 292 279 272 269 268 265 262 258 250 247 252 252 248
100 334 140 81 67 65 15 353 20 64 62 68 95 73 53 42 64 74 62 59 52 47 45 42 53 56 56 55 57 56 48 43 37 16 316 292 283 275 268 260 256 250 251 251
215 323 83 18 30 105 95 22 305 137 57 113 96 91 67 68 64 75 76 78 72 65 62 63 60 56 55 56 57 57 52 42 32 22 11 4 338 292 278 273 268 262 254 249
161 22 179 285 103 107 94 41 21 62 68 73 86 78 58 28 55 43 49 53 57 61 64 64 64 64 62 51 43 41 39 32 29 21 12 2 356 353 327 290 275 270 264 255
143 154 123 269 257 216 141 26 1 42 41 62 98 68 40 23 52 73 68 69 48 42 45 49 39 35 31 32 30 25 20 16 12 9 5 1 354 346 343 334 287 263 262 261
143 148 189 175 241 339 135 71 336 75 49 31 66 66 291 330 350 12 21 24 18 16 18 21 18 17 18 14 4 358 2 4 2 357 354 354 351 344 339 332 305 283 270 282
142 131 312 302 317 326 137 186 159 114 99 70 89 169 258 317 357 10 7 5 5 8 6 358 354 352 345 337 332 328 326 335 338 339 340 344 345 345 337 332 309 173 172 204
92 94 198 6 344 154 171 103 131 64 50 61 57 24 349 359 354 357 355 353 350 345 340 340 342 338 324 314 315 315 313 314 314 313 318 331 337 338 339 305 161 145 141 139
124 152 272 321 92 79 84 95 56 82 71 113 85 6 330 325 327 325 327 325 325 319 314 312 311 305 303 310 314 307 306 308 305 301 300 312 322 324 320 275 181 160 151 153
86 351 63 71 66 84 108 122 148 143 152 164 247 257 265 278 284 296 306 310 314 308 299 294 302 298 297 304 305 299 292 289 288 292 289 290 293 295 289 269 229 193 181 175
70 147 93 48 92 117 95 76 20 350 3 350 346 325 321 317 305 298 295 300 299 285 285 286 297 298 299 297 301 293 295 289 283 284 290 279 276 276 287 273 248 233 213 208
198 194 146 188 180 146 70 36 51 78 346 325 305 295 292 286 288 291 292 291 286 284 280 280 288 292 296 295 295 290 290 285 283 283 285 277 277 272 274 281 270 253 248 242
166 174 165 149 171 171 161 180 293 319 325 293 292 282 282 283 285 291 294 293 289 284 280 277 275 278 287 289 287 287 285 288 281 279 276 270 269 262 262 287 270 273 267 266
124 115 103 167 203 198 166 107 56 310 296 297 298 302 288 286 289 284 279 280 284 284 282 283 281 275 273 282 283 283 284 280 279 280 277 268 257 262 260 257 259 270 266 273
159 178 178 167 115 124 131 7 330 308 293 290 302 285 291 289 285 282 282 280 283 282 282 280 278 277 277 277 279 279 271 276 282 281 283 264 258 263 252 260 255 260 266 274
189 157 88 86 125 341 317 303 299 298 295 293 295 295 290 288 290 293 292 288 285 278 279 279 278 275 274 274 274 277 269 277 277 273 273 265 258 245 240 256 249 236 247 236
123 110 115 176 242 279 278 286 267 272 287 286 286 290 295 296 294 293 290 288 290 286 282 278 275 277 272 270 270 269 272 272 275 271 268 264 255 246 232 247 237 238 238 232
117 121 139 167 221 258 279 273 280 291 290 298 302 301 304 303 294 289 289 289 284 283 280 278 279 275 271 262 262 265 266 272 272 264 262 258 253 246 238 241 231 226 219 196
143 143 188 230 256 264 270 288 311 306 305 312 312 310 305 302 301 297 292 285 280 281 284 288 285 288 270 263 263 266 264 258 255 255 255 254 253 251 239 234 216 211 199 186
135 184 215 270 305 292 301 318 321 315 322 318 317 310 307 307 308 304 297 287 280 275 282 286 290 284 273 271 274 263 258 238 236 249 254 252 248 230 218 221 202 184 182 181
188 266 284 316 319 326 332 334 339 333 327 333 323 317 314 318 319 314 307 296 294 299 298 289 283 274 272 274 271 238 232 237 247 248 252 254 246 212 192 186 175 172 165 165
260 272 288 330 324 322 349 353 5 355 357 349 345 346 343 343 343 340 348 343 328 328 328 327 286 255 228 191 190 187 185 200 287 281 282 264 193 167 161 163 156 155 151 154
259 265 314 316 321 324 343 9 13 12 359 335 336 348 355 345 344 348 346 349 356 360 13 20 106 114 122 122 122 116 97 82 92 102 107 118 130 133 139 143 143 149 148 147
273 315 303 312 321 341 337 337 333 335 326 323 343 357 352 347 353 6 3 10 15 22 35 39 50 65 84 94 103 106 103 110 113 113 114 114 111 111 110 118 123 135 143 146
301 296 300 306 315 303 310 312 299 319 317 310 318 328 343 355 351 350 10 18 23 28 31 34 43 52 62 80 86 93 101 110 111 119 123 128 122 118 128 134 132 135 139 141
258 258 267 282 277 288 292 288 283 318 308 307 326 342 341 341 343 349 5 24 27 36 46 50 49 52 60 70 87 93 100 107 112 113 117 121 122 126 130 133 137 139 146 149
303 250 268 289 293 288 273 266 281 292 297 307 318 336 347 350 1 353 355 24 37 40 39 46 52 53 53 55 52 65 88 104 108 111 118 123 126 125 136 137 143 152 157 157